Find Starlink 2637

NORAD ID: 48356 Int'l Des: 2021-038 Owner: SPXS Country: US Constellation: starlink operational
LEOCIRCULAR

实时位置

正在加载3D地球...

关于 Starlink 2637

正在加载描述...

即将过境

Passes for default location (London). Set your location on the main map for personalized predictions.

高度历史

Loading altitude history...

两行轨道根数

1 48356U 21038D 26119.38629029 .00008299 00000-0 29202-3 0 9994
2 48356 53.1595 122.6574 0001497 88.0399 272.0773 15.30197136274840
Epoch: Apr 29, 2026 • Age: 14 hours

当前状态

高度 475.4 km
速度 7.63 km/s
星下点 22.03°N, 72.98°W
发射日期 May 4, 2021
运行时间 4.9 years
类型 internet

技术详情

分类 Payload
质量 260.00 kg
干质量 248.00 kg
总质量 260.00 kg
长度 0.20 m
直径 2.80 m
跨度 9.00 m
形状 Box + pan
制造商 SPXS
平台类型 Starlink
阶段状态 In Orbit
所有者/国家 SPXS/US

Most Searched